Location: Kororipo
(41.0667°S, 175.1500°E)
Time: 17:54:10
(UTC+00:00)

Daily predictions for brighter satellites

Satellite Brightness Start Highest point End
(mag) Time Altitude Azimuth Time Altitude Azimuth Time Altitude Azimuth
Cosmos 1943 Rocket 2.9 12:07:20 48° SSE 12:07:20 48° SSE 12:11:18 10° SSE
Terra 4.2 12:14:31 10° SSW 12:17:24 16° WSW 12:17:43 16° WSW
Cosmos 2123 Rocket 4.3 12:11:53 10° S 12:17:23 62° SE 12:17:23 62° SE
CZ-2D R/B 3.4 12:26:29 34° SE 12:26:29 34° SE 12:30:28 10° S
NOSS 3-1 (C) 4.4 12:20:34 10° SW 12:24:24 35° WSW 12:24:24 35° WSW
USA 229 DEB 3.9 12:27:29 10° SSW 12:34:07 57° SE 12:34:07 57° SE
USA 229 3.9 12:27:32 10° SSW 12:34:10 57° SE 12:34:14 57° SE
Cosmos 1934 Rocket 4.3 12:37:36 62° SSW 12:37:36 62° SSW 12:42:46 10° S
USA 215 4.4 12:38:22 10° SE 12:44:24 39° SSW 12:49:01 17° W
BREEZE M DEB (TANK) 4.4 12:46:50 37° ESE 12:46:50 37° ESE 12:53:19 10° ESE
NPP 4.4 12:53:46 49° SSE 12:53:46 49° SSE 12:58:04 10° S
Cosmos 2297 4.4 12:57:20 51° SSW 12:57:20 51° SSW 13:01:50 10° SSE
NOSS 3-1 (A) 4.5 12:56:29 10° SW 13:00:06 33° WSW 13:00:06 33° WSW
Cosmos 2082 Rocket 4.2 13:03:20 10° SW 13:05:14 17° WSW 13:05:14 17° WSW
ADEOS II 2.9 13:10:21 47° SE 13:10:21 47° SE 13:14:41 10° S
USA 267 3.9 13:20:29 43° WSW 13:20:29 43° WSW 13:24:59 10° SW
Lacrosse 5 rocket 3.5 13:23:37 26° SSW 13:23:37 26° SSW 13:27:03 10° SSE
Lacrosse 4 Rocket 3.6 13:29:20 22° S 13:29:20 22° S 13:31:07 10° SSE
ATLAS 5 CENTAUR R/B 3.8 13:28:18 33° ENE 13:28:18 33° ENE 13:34:39 10° SE
ISS -0.3 13:31:23 12° SSE 13:31:23 12° SSE 13:31:55 10° SSE
Cosmos 2369 Rocket 2.8 13:33:40 51° SW 13:33:40 51° SW 13:38:38 10° SSE
Resurs 1-4 Rocket 3.2 13:38:00 36° SW 13:38:00 36° SW 13:41:27 10° SSW
Cosmos 2016 Rocket 4.4 13:45:54 50° E 13:46:12 50° E 13:52:08 10° SSE
Cosmos 1656 Rocket 4.5 13:47:52 43° SW 13:47:52 43° SW 13:52:57 10° SSE
MOS 1 Rocket 4.5 13:44:46 10° S 13:47:27 37° S 13:47:27 37° S
Cosmos 1943 Rocket 4.4 13:48:49 13° WSW 13:50:19 14° SW 13:53:10 10° SSW
IDEFIX/ARIANE 42P 3.5 13:52:31 41° SW 13:52:31 41° SW 13:56:07 10° SSW
CZ-2C R/B 4.5 13:51:56 16° E 13:53:44 20° ESE 13:57:08 10° SSE
Cosmos 1626 4.5 14:00:15 21° SE 14:00:15 21° SE 14:01:56 10° SSE
ALOS 3.6 13:58:49 32° E 13:59:22 33° ESE 14:03:35 10° S
SL-4 R/B 4.0 14:02:05 28° E 14:02:05 28° E 14:04:37 10° ESE
CZ-2D R/B 3.8 14:07:47 22° WSW 14:07:47 22° WSW 14:10:15 10° SW
IRS-1D 3.9 14:06:02 57° ESE 14:06:02 57° ESE 14:10:57 10° S
Cosmos 2173 Rocket 4.0 14:06:46 71° W 14:06:50 71° W 14:13:18 10° S
Meteor 1-22 Rocket 4.2 14:07:14 10° S 14:12:44 67° ESE 14:12:55 67° E
FENGYUN 3A 3.7 14:15:32 68° ENE 14:15:57 72° ESE 14:21:27 10° S
Cosmos 494 Rocket 4.3 14:17:33 57° E 14:17:33 57° E 14:22:30 10° SSE
Cosmos 1459 Rocket 4.1 14:21:34 55° W 14:21:34 55° W 14:27:35 10° S
Cosmos 1725 Rocket 3.8 14:26:48 73° NNW 14:27:25 82° W 14:33:43 10° S
MOZ.5/SAFIR/RUBIN 5/SL-8 3.9 14:23:29 10° SSE 14:27:58 70° ESE 14:27:58 70° ESE
Cosmos 1864 Rocket 4.4 14:34:13 64° WNW 14:34:52 68° W 14:41:09 10° S
SL-16 R/B 4.0 14:30:58 10° SE 14:36:21 30° E 14:39:48 18° NE
Okean 3 4.2 14:39:37 46° SSW 14:39:37 46° SSW 14:42:50 10° S
Cosmos 2061 Rocket 4.0 14:43:11 59° NW 14:44:19 70° W 14:50:52 10° S
Meteor 1-23 Rocket 4.5 14:44:28 51° W 14:44:38 51° WSW 14:50:06 10° S
Meteor 1-21 4.2 14:45:00 60° NNE 14:46:02 79° E 14:51:44 10° SSE
Cosmos 1908 3.9 14:44:00 10° S 14:47:17 53° SE 14:47:17 53° SE
ADEOS II 4.0 14:51:17 17° WSW 14:51:17 17° WSW 14:53:16 10° SW
Cosmos 1707 4.0 14:51:29 34° SSW 14:51:29 34° SSW 14:54:06 10° S
Meteor 2-19 Rocket 4.4 14:46:28 10° SSW 14:52:30 62° W 14:53:22 56° NW
BREEZE-M DEB (TANK) 4.4 14:56:12 40° WNW 14:59:27 88° NNE 15:29:09 10° ESE
Cosmos 1048 Rocket 4.1 14:59:47 57° WNW 15:00:28 62° WSW 15:05:48 10° SSE
Envisat 4.2 14:56:18 10° NE 15:01:04 42° ESE 15:05:54 10° S
Lacrosse 5 rocket 4.4 15:01:46 10° SSW 15:03:28 12° S 15:05:11 10° SSE
Cosmos 2233 Rocket 4.0 15:04:14 49° NW 15:05:43 63° W 15:11:54 10° S
Cosmos 192 4.2 15:01:44 10° SSW 15:06:42 74° WNW 15:07:28 60° NNW
CZ-2C R/B 3.7 15:02:53 13° NE 15:06:59 49° ESE 15:11:38 10° S
ISS -0.7 15:05:18 10° SSW 15:07:17 14° S 15:09:16 10° SE
Cosmos 2242 Rocket 3.7 15:09:32 59° W 15:09:44 60° W 15:14:22 10° S
METEOR-M 4.0 15:10:04 38° N 15:12:12 82° WNW 15:17:39 10° SSW
ATLAS 5 CENTAUR R/B 3.0 15:09:40 37° WNW 15:12:44 61° SW 15:19:47 10° SSE
Cosmos 1809 Rocket 4.4 15:06:38 10° S 15:12:54 86° E 15:16:44 25° N
Cosmos 2297 Rocket 3.1 15:08:19 10° SSW 15:13:52 49° ESE 15:19:21 10° NE
SL-24 DEB 4.2 15:14:29 53° NNW 15:15:34 78° W 15:20:24 10° S
Cosmos 1674 4.1 15:16:42 26° SW 15:16:42 26° SW 15:19:08 10° SSW
Cosmos 1300 Rocket 3.4 15:12:58 10° S 15:17:22 88° W 15:18:24 53° N
SL-27 R/B 4.5 15:16:40 10° SSW 15:17:40 18° SW 15:17:40 18° SW
Cosmos 2227 Rocket 3.8 15:16:22 10° S 15:21:36 35° ESE 15:26:47 10° ENE
Meteor 1-28 Rocket 3.4 15:18:33 10° SSE 15:22:16 63° E 15:22:58 51° NNE
BlueWalker 3 2.3 15:22:40 50° WSW 15:23:13 56° SW 15:27:11 10° SE
Tsikada Rocket 4.4 15:17:38 10° SSW 15:23:35 44° W 15:25:19 36° NW
Cosmos 1656 3.6 15:23:46 40° NNW 15:25:55 85° WSW 15:31:42 10° SSE
IRS-1C 4.1 15:21:50 16° NNE 15:26:09 84° ESE 15:31:36 10° SSW
PAYLOAD A 4.4 15:29:12 38° NNW 15:30:49 50° W 15:36:11 10° SSW
CZ-2C R/B 2.6 15:31:18 41° WNW 15:31:36 42° W 15:36:04 10° SSW
Cosmos 1626 4.3 15:34:24 14° WSW 15:34:24 14° WSW 15:35:50 10° SW
Tiangong 0.6 15:36:33 11° NE 15:36:33 11° NE 15:36:47 10° NE
ALOS 3.5 15:37:16 24° W 15:37:16 24° W 15:40:36 10° SW
Okean 2 Rocket 3.7 15:33:38 10° S 15:38:08 59° E 15:42:36 10° NNE
Cosmos 1782 Rocket 4.5 15:34:36 10° SSW 15:38:18 30° W 15:38:18 30° W
Cosmos 1452 Rocket 4.1 15:34:40 10° SW 15:39:31 37° WNW 15:40:26 34° NW
Cosmos 1953 2.4 15:35:27 10° S 15:39:34 75° E 15:42:25 19° NNE
SL-4 R/B 3.1 15:37:24 27° W 15:39:35 45° SSW 15:44:06 10° SE
Cosmos 1980 Rocket 4.0 15:35:07 10° NNE 15:39:42 26° ENE 15:44:19 10° SE
ARIANE 5 R/B 2.4 15:35:16 14° NNE 15:39:44 86° WNW 15:44:56 10° SSW
Meteor 2-21 4.4 15:34:58 10° SSW 15:41:12 72° W 15:46:10 16° N
H-2A R/B 3.9 15:38:47 10° NE 15:42:22 43° ESE 15:46:00 10° S
Cosmos 1697 Rocket 3.1 15:39:54 21° N 15:43:40 60° ENE 15:49:15 10° SSE
Cosmos 1331 Rocket 4.2 15:39:07 10° SSW 15:44:18 51° WNW 15:47:38 21° N
Cosmos 44 3.8 15:44:07 25° NNW 15:47:11 64° ENE 15:52:26 10° SE
Cosmos 1302 Rocket 4.0 15:44:27 10° SSW 15:49:46 84° ESE 15:54:59 10° NNE
Cosmos 2219 4.4 15:45:50 10° SSW 15:51:25 46° ESE 15:56:56 10° NE
Lacrosse 5 4.4 15:51:14 10° NE 15:53:25 13° ENE 15:55:37 10° E
Meteor 2-21 Rocket 4.4 15:52:15 10° SSW 15:58:29 71° W 16:04:36 10° N
Cosmos 1300 2.8 15:59:22 10° SSW 16:03:05 50° W 16:05:08 23° NNW
Spot 4 Rocket 4.3 15:58:16 10° NNE 16:03:25 73° ESE 16:08:37 10° S
Meteor 1-16 Rocket 4.4 15:58:29 10° SSW 16:03:36 45° W 16:07:38 16° NNW
IRS-P3 4.3 16:00:30 12° N 16:05:14 50° W 16:10:29 10° SSW
Cosmos 1674 Rocket 3.5 16:04:31 19° NNW 16:07:43 73° W 16:12:11 10° S
Cosmos 614 Rocket 4.2 16:03:24 13° N 16:07:57 67° ENE 16:13:05 10° SSE
Cosmos 1455 4.2 16:05:00 10° SSE 16:08:18 29° ESE 16:11:34 10° NE
COSMOS 2455 3.2 16:07:35 12° NNW 16:13:04 65° ENE 16:19:04 10° SE
CZ-2C R/B 4.0 16:11:50 10° NE 16:15:34 44° ESE 16:19:18 10° S
Meteor 2-10 Rocket 4.0 16:12:22 10° SSW 16:17:30 44° W 16:22:45 10° NNW
NOAA 11 4.2 16:12:31 10° N 16:17:55 64° WNW 16:23:23 10° SSW
CZ-2D R/B 3.8 16:14:07 10° N 16:18:24 48° W 16:22:45 10° SSW
Okean 1 Rocket 3.1 16:14:47 10° S 16:19:14 82° E 16:23:39 10° N
Meteor 1-29 4.3 16:16:46 10° NE 16:19:45 38° ESE 16:22:48 10° S
SL-16 R/B 3.0 16:14:09 10° S 16:20:03 45° WSW 16:24:53 15° NW
Nadezhda 4 Rocket 4.0 16:16:05 10° SSW 16:22:20 68° W 16:28:36 10° N
ATLAS CENTAUR R/B 1.1 16:20:24 17° NNW 16:23:03 71° ENE 16:26:45 10° SE
Cosmos 1484 Rocket 3.7 16:21:43 19° NW 16:23:21 26° W 16:26:34 10° SW
NOSS 3-4 (A) 3.9 16:19:03 10° SSW 16:26:08 73° SE 16:32:14 10° NE
NOSS 3-4 (C) 3.9 16:19:10 10° SSW 16:26:14 73° SE 16:32:20 10° NE
Helios 1B rocket 3.2 16:25:24 13° NNW 16:28:33 30° W 16:32:14 10° SW
YAOGAN 6 4.0 16:28:32 17° WNW 16:29:21 19° W 16:31:53 10° SW
USA 281 4.2 16:24:08 10° SE 16:30:28 46° ENE 16:36:44 10° N
PSLV R/B 3.4 16:32:42 10° N 16:36:54 76° WNW 16:41:11 10° SSW
Cosmos 2151 Rocket 4.4 16:33:30 10° SSW 16:37:28 32° W 16:41:23 10° NNW
Envisat 4.2 16:36:16 10° NW 16:40:12 23° W 16:44:16 10° SW
Meteor 1-24 Rocket 3.9 16:36:06 10° N 16:41:49 90° E 16:47:48 10° S
Lacrosse 5 rocket 4.4 16:42:12 10° SSW 16:44:17 13° SSE 16:46:21 10° SE
ISS -1.8 16:41:45 10° SW 16:44:52 31° SSE 16:47:56 10° E
USA 290 3.0 16:42:57 10° N 16:46:07 52° ENE 16:49:20 10° SSE
CZ-2C R/B 4.4 16:43:56 10° NW 16:47:06 18° W 16:50:20 10° SW
Cosmos 1238 Rocket 3.9 16:51:25 10° S 16:55:09 43° ESE 16:58:20 10° NNE
Cosmos 1140 Rocket 4.4 16:50:35 10° N 16:55:37 53° ENE 17:00:45 10° SSE
Cosmos 2297 Rocket 3.3 16:53:05 10° SW 16:57:32 24° W 17:01:57 10° NNW
ATLAS 5 CENTAUR R/B 4.5 16:53:36 10° WSW 16:58:42 19° SSW 17:03:28 10° SSE
BlueWalker 3 4.2 16:59:44 10° WSW 17:02:33 18° SSW 17:05:22 10° SSE
SJ-12 4.3 17:01:32 10° N 17:05:27 43° W 17:09:26 10° SSW
Cosmos 2227 Rocket 2.8 17:00:30 10° SW 17:05:35 34° WNW 17:10:37 10° NNW
